Skip Page Navigation
NASA JPL Caltech
NASA Logo - Jet Propulsion Laboratory + View the NASA Portal
+ Center for Near-Earth Object Studies
JPL Home Earth Solar System Stars & Galaxies Technology
JPL Solar System Dynamics
BODIES ORBITS EPHEMERIDES TOOLS PHYSICAL DATA DISCOVERY FAQ SITE MAP
JPL Small-Body Database Browser
Search: [ help ]  
123 Brunhild (A872 OB)
Classification: Main-belt Asteroid          SPK-ID: 2000123
Ephemeris | Orbit Diagram | Orbital Elements | Mission Design | Physical Parameters | Discovery Circumstances | Close-Approach Data ]

[ show orbit diagram ]
Orbital Elements at Epoch 2459000.5 (2020-May-31.0) TDB
Reference: JPL 37 (heliocentric ecliptic J2000)
 Element Value Uncertainty (1-sigma)   Units 
e .1206203589683324 3.651e-08  
a 2.695223627240761 8.5399e-09 au
q 2.37012478582305 9.8994e-08 au
i 6.414358259245938 4.76e-06 deg
node 307.7251494314763 3.5418e-05 deg
peri 125.6747998065424 4.0769e-05 deg
M 49.05219239785185 1.97e-05 deg
tp 2458780.285172829734
(2019-Oct-23.78517283)
8.823e-05 TDB
period 1616.183373381032
4.42
7.6814e-06
2.103e-08
d
yr
n .2227470013176075 1.0587e-09 deg/d
Q 3.020322468658472 9.57e-09 au
  Orbit Determination Parameters
   # obs. used (total)      2865  
   data-arc span      53958 days (147.73 yr)  
   first obs. used      1872-08-02  
   last obs. used      2020-04-26  
   planetary ephem.      DE431  
   SB-pert. ephem.      SB431-N16  
   condition code      0  
   norm. resid. RMS      .45954  
   source      ORB  
   producer      Otto Matic  
   solution date      2020-May-20 00:59:13  

Additional Information
 Earth MOID = 1.39205 au 
 Jupiter MOID = 2.22056 au 
 T_jup = 3.351 
[ show covariance matrix ]

Ephemeris | Orbit Diagram | Orbital Elements | Mission Design | Physical Parameters | Discovery Circumstances | Close-Approach Data ]

Physical Parameter Table
Parameter Symbol Value Units Sigma Reference Notes
absolute magnitude H 8.9   n/a MPO332813  
diameter diameter 45.209 km 1.883 urn:nasa:pds:neowise_diameters_albedos::2.0[mainbelt] (http://adsabs.harvard.edu/abs/2012ApJ...759L...8M)  
rotation period rot_per 9.873 h n/a LCDB (Rev. 2019-August); Warner et al., 2009 Published Reference List:
[Barucci, M.A.; Di Martino, M. (1984) Astron. Astrophys. Suppl. Ser. 57, 103-106.]
[Behrend, R. (2010) Observatoire de Geneve web site, http://obswww.unige.ch/~behrend/page_cou.html]
[Pilcher, F. (2016) Minor Planet Bull. 43, 222-224.]
geometric albedo albedo 0.261   0.064 urn:nasa:pds:neowise_diameters_albedos::2.0[mainbelt] (http://adsabs.harvard.edu/abs/2012ApJ...759L...8M)  
B-V BV 0.850   0.019 EAR-A-5-DDR-UBV-MEAN-VALUES-V1.2 #obs=3; phase (min.=3.22, mean=9.07, max.=20.32) deg.
U-B UB 0.395   0.023 EAR-A-5-DDR-UBV-MEAN-VALUES-V1.2 #obs=3; phase (min.=3.22, mean=9.07, max.=20.32) deg.
Tholen spectral type spec_T S   n/a EAR-A-5-DDR-TAXONOMY-V4.0 used 2 color indices; used ground-based radiometric albedo
SMASSII spectral type spec_B S   n/a EAR-A-5-DDR-TAXONOMY-V4.0 based on a high-resolution spectrum by Xu et al. (1995) or Bus and Binzel (2002)

123 Brunhild (A872 OB)          Discovered 1872-Jul-31 by Peters, C. H. F. at Clinton
Reference: DISCOVERY.DBLast Updated: 2003-08-29

[ show close-approach data ]
Ephemeris | Orbit Diagram | Orbital Elements | Mission Design | Physical Parameters | Discovery Circumstances | Close-Approach Data ]
ABOUT SSD CREDITS/AWARDS PRIVACY/COPYRIGHT GLOSSARY LINKS
FirstGov 2020-Oct-20 04:13 UT
(server date/time)  
NASA Home Page
Site Manager:   Ryan S. Park
Webmaster  Alan B. Chamberlin